トータス彗星

C/2017 M5 ( TOTAS )

English version
Home page
Updated on October 9, 2017

---------------------------------------------------------------------

・ プロフィール

発見日 2017年6月23日
発見光度 18.6等
発見者 Teide Observatory Tenerife Asteroid Survey (TOTAS)

・ 写真集

・ 軌道要素

Epoch 2018 June 11.0 TT = JDT 2458280.5
T 2018 June 2.87088 TT                                  MPCW
q   5.9897042            (2000.0)            P               Q
z  -0.0006076      Peri.   92.64893     +0.60557478     +0.77914557
 +/-0.0000813      Node   216.26398     -0.79443314     +0.58003186
e   1.0036395      Incl.   15.88496     -0.04642393     +0.23768723
From 103 observations 2017 June 23-Sept. 25, mean residual 0".5.

・ 光度変化

        m1 = 6.5 + 5 logΔ + 10.0 log r

---------------------------------------------------------------------

軌道要素はM.P.E.C. 2017-T14に掲載されたものです。
光度グラフはComet for Windowsで作成したものです。

---------------------------------------------------------------------

Copyright(C) Seiichi Yoshida (comet@aerith.net). All rights reserved.